This is the latest recevied weather packets stored in our database for station/object KB4MOX. If no packets are shown the sender has not sent any weather packets the latest 10 day(s).
| Time | Temp. | Humidity | Pressure | Rain* | Wind** | Luminosity | Snow |
|---|---|---|---|---|---|---|---|
| 1778116250 | 25° C | 60% | 1013.1 hPa | 0 mm | - | 0 W/m² | - |
| 1778115950 | 25° C | 60% | 1013.1 hPa | 0 mm | - | 0 W/m² | - |
| 1778115646 | 25° C | 61% | 1013 hPa | 0 mm | - | 0 W/m² | - |
| 1778115344 | 25° C | 61% | 1013 hPa | 0 mm | - | 0 W/m² | - |
| 1778115040 | 25° C | 60% | 1012.8 hPa | 0 mm | - | 0 W/m² | - |
| 1778114737 | 25° C | 60% | 1012.9 hPa | 0 mm | - | 0 W/m² | - |
| 1778114435 | 25.56° C | 59% | 1012.9 hPa | 0 mm | - | 0 W/m² | - |
| 1778114130 | 25.56° C | 59% | 1012.8 hPa | 0 mm | - | 0 W/m² | - |
| 1778113826 | 25.56° C | 58% | 1012.5 hPa | 0 mm | - | 0 W/m² | - |
| 1778113522 | 25.56° C | 58% | 1012.9 hPa | 0 mm | - | 1 W/m² | - |
| 1778113219 | 25.56° C | 58% | 1013.1 hPa | 0 mm | - | 1 W/m² | - |
| 1778112915 | 26.11° C | 57% | 1013 hPa | 0 mm | - | 3 W/m² | - |
| 1778112613 | 26.11° C | 56% | 1012.6 hPa | 0 mm | - | 6 W/m² | - |
| 1778112308 | 26.67° C | 56% | 1012.5 hPa | 0 mm | - | 9 W/m² | - |
| 1778112004 | 26.67° C | 56% | 1012.7 hPa | 0 mm | - | 13 W/m² | - |
| 1778111702 | 26.67° C | 54% | 1012.2 hPa | 0 mm | - | 20 W/m² | - |
| 1778111397 | 27.22° C | 54% | 1012.2 hPa | 0 mm | - | 29 W/m² | - |
| 1778111095 | 27.22° C | 54% | 1012.2 hPa | 0 mm | - | 35 W/m² | - |
| 1778110792 | 27.22° C | 54% | 1012.9 hPa | 0 mm | - | 46 W/m² | - |
| 1778110489 | 27.22° C | 53% | 1012.8 hPa | 0 mm | - | 45 W/m² | - |
| 1778110185 | 27.22° C | 53% | 1012.8 hPa | 0 mm | - | 48 W/m² | - |
| 1778109882 | 27.22° C | 52% | 1013.1 hPa | 0 mm | - | 52 W/m² | - |
| 1778109577 | 27.78° C | 52% | 1013.3 hPa | 0 mm | - | 46 W/m² | - |
| 1778109275 | 27.78° C | 51% | 1012.9 hPa | 0 mm | - | 59 W/m² | - |
| 1778108972 | 27.78° C | 52% | 1012.8 hPa | 0 mm | - | 59 W/m² | - |
* Rain latest hour (hover to see other rain measurements)
** Current wind speed in m/s (hover to see current wind gust speed)